Tracking 35280 objects as of 7-Sep-2026
HD Live streaming from Space Station
objects crossing your sky now

THOR ABLESTAR DEB


10-day predictions


NORAD ID: 3125
Int'l Code: 1961-015HY
Launch date: June 29, 1961
Source: United States (US)
Launch site: AIR FORCE EASTERN TEST RANGE (AFETR)

Note: This is SATELLITE DEBRIS
Your satellite tracking list
Your tracking list is empty




NASA's NSSDC Master Catalog

Two Line Element Set (TLE):
1  3125U 61015HY  26249.59283978  .00000276  00000-0  58245-3 0  9990
2  3125  67.5562  80.5181 0301366 344.8645  75.0855 13.27675485158338
Source of the keplerian elements: AFSPC